Hourly Data Report for May 10, 2012

All times are specified in Local Standard Time (LST). Add 1 hour to adjust for Daylight Saving Time where and when it is observed.

DEER LAKE A
NEWFOUNDLAND

49°12'33.000" N
57°23'40.000" W
21.90 m
8401502
71809
YDF

Download Data

Hourly Data (May 2012)
Hourly Data Report for May 10, 2012
Temp Definition
°C
Dew Point Temp Definition
°C
Rel Hum Definition
%
Wind Dir Definition
10's deg

Wind Spd Definition
km/h
Visibility Definition
km
Stn Press Definition
kPa
Hmdx Definition


Wind Chill Definition


Weather Definition


TIME
00:30 Legend Double Dagger 7.6 5.9 89 20 14 9.7 101.04     Rain,Fog
01:30 Legend Double Dagger 7.3 5.9 91 19 10 9.7 101.00     Rain,Fog
02:30 Legend Double Dagger 7.5 5.8 89 20 6 9.7 100.96     Rain,Fog
03:30 Legend Double Dagger 7.6 5.8 88 20 16 10.0 100.92     Rain
04:30 Legend Double Dagger 7.3 5.9 91 19 17 10.0 100.90     Rain
05:30 Legend Double Dagger 7.6 6.4 92 18 13 8.1 100.91     Rain,Fog
06:30 Legend Double Dagger 8.2 7.1 93 17 9 4.8 100.92     Rain,Fog
07:30 Legend Double Dagger 9.2 7.8 91 18 10 10.0 100.91     Rain
08:30 Legend Double Dagger 9.7 8.2 90 21 18 10.0 100.92     Rain
09:30 Legend Double Dagger 10.3 8.7 90 21 17 10.0 100.90     Rain
10:30 Legend Double Dagger 10.6 9.2 91 23 10 10.0 100.91     Rain
11:30 Legend Double Dagger 11.8 9.9 88 21 17 10.0 100.91     Rain
12:30 Legend Double Dagger 12.8 11.4 91 22 10 10.0 100.91     Rain
13:30 Legend Double Dagger 14.0 11.0 82 19 29 10.0 100.92     Rain
14:30 Legend Double Dagger 13.7 10.7 82 20 26 10.0 100.95     Cloudy
15:30 Legend Double Dagger 14.2 10.8 80 19 12 10.0 100.95     LegendNANA
16:30 Legend Double Dagger 16.4 11.2 71 18 28 10.0 100.93     LegendNANA
17:30 Legend Double Dagger 15.2 10.2 72 22 15 10.0 100.92     Mostly Cloudy
18:30 Legend Double Dagger 15.0 10.7 75 18 25 10.0 100.92     LegendNANA
19:30 Legend Double Dagger 14.0 10.3 78 17 16 10.0 100.91     LegendNANA
20:30 Legend Double Dagger 14.2 10.7 79 18 15 10.0 100.90     Mostly Cloudy
21:30 Legend Double Dagger 14.0 10.8 81   0 10.0 100.85     LegendNANA
22:30 Legend Double Dagger 14.3 11.3 82 18 12 10.0 100.76     Rain
23:30 Legend Double Dagger 14.8 11.8 82 21 6 10.0 100.67     Rain

Notes on Data Quality.

Legend

  • E = Estimated
  • M = Missing
  • NA = Not Available
  • ‡ = Partner data that is not subject to review by the National Climate Archives
Date modified: